Tracking 33094 objects as of 25-Jan-2026
HD Live streaming from Space Station
objects crossing your sky now

SATCOM 3 DEB

Track SATCOM 3 DEB now!


NORAD ID: 31138
Int'l Code: 1979-101H
Perigee: 8,087.9 km
Apogee: 35,625.5 km
Inclination: 8.9 °
Period: 786.6 minutes
Semi major axis: 28227 km
RCS: 0.0839 m2 (small)
Launch date: December 7, 1979
Source: United States (US)
Launch site: AIR FORCE EASTERN TEST RANGE (AFETR)

Note: This is SATELLITE DEBRIS
Your satellite tracking list
Your tracking list is empty




NASA's NSSDC Master Catalog

Two Line Element Set (TLE):
1 31138U 79101H   26021.70117838 -.00000049  00000-0  00000-0 0  9994
2 31138   8.9124  64.4318 4877774 145.0536 317.9704  1.83058654127962
Source of the keplerian elements: AFSPC